Overview Statistics Trail Chart Weather Telemetry Raw packets
 

This is the latest recevied weather packets stored in our database for station/object KK6MIG-13. If no packets are shown the sender has not sent any weather packets the latest 10 day(s).

<< 444 445 446 447 448 449 450 >>
Time Temp. Humidity Pressure Rain* Wind** Luminosity Snow
1787967242 16.67° C 14% 1013.6 hPa 0 mm - 167 W/m² -
1787967182 16.67° C 16% 1013.6 hPa 0 mm - 169 W/m² -
1787967122 16.67° C 15% 1013.6 hPa 0 mm - 172 W/m² -
1787967059 17.22° C 14% 1013.7 hPa 0 mm - 176 W/m² -
1787966996 17.22° C 14% 1013.6 hPa 0 mm - 178 W/m² -
1787966937 17.22° C 15% 1013.6 hPa 0 mm - 186 W/m² -
1787966877 17.22° C 13% 1013.6 hPa 0 mm - 192 W/m² -
1787966815 17.22° C 12% 1013.6 hPa 0 mm - 195 W/m² -
1787966751 17.22° C 13% 1013.6 hPa 0 mm - 199 W/m² -
1787966691 17.22° C 14% 1013.6 hPa 0 mm - 204 W/m² -
1787966631 17.22° C 15% 1013.6 hPa 0 mm - 209 W/m² -
1787966570 17.22° C 16% 1013.6 hPa 0 mm - 214 W/m² -
1787966510 17.22° C 18% 1013.6 hPa 0 mm - 218 W/m² -
1787966448 17.22° C 20% 1013.7 hPa 0 mm - 221 W/m² -
1787966395 17.22° C 20% 1013.7 hPa 0 mm - 229 W/m² -
1787966390 17.22° C 21% 1013.6 hPa 0 mm - 225 W/m² -
1787966267 17.22° C 22% 1013.7 hPa 0 mm - 234 W/m² -
1787966206 17.22° C 23% 1013.6 hPa 0 mm - 237 W/m² -
1787966141 17.22° C 24% 1013.6 hPa 0 mm - 241 W/m² -
1787966078 17.22° C 25% 1013.6 hPa 0 mm - 244 W/m² -
1787966018 17.22° C 22% 1013.6 hPa 0 mm - 253 W/m² -
1787965958 17.22° C 22% 1013.5 hPa 0 mm - 253 W/m² -
1787965898 17.22° C 21% 1013.5 hPa 0 mm - 258 W/m² -
1787965832 17.22° C 18% 1013.6 hPa 0 mm - 260 W/m² -
1787965772 17.22° C 17% 1013.5 hPa 0 mm - 265 W/m² -

* Rain latest hour (hover to see other rain measurements)
** Current wind speed in m/s (hover to see current wind gust speed)